Time,TemperatureF,DewpointF,PressureIn,WindDirection,WindDirectionDegrees,WindSpeedMPH,WindSpeedGustMPH,Humidity,HourlyPrecipIn,Conditions,Clouds,dailyrainin,SoftwareType,DateUTC
2013-04-22 00:00:00,53.6,42.9,30.38,ENE,67,0.0,0.0,67,0.00,,---,0.00,VWS V14.00,2013-04-22 04:00:00,
2013-04-22 00:01:00,53.5,42.8,30.37,ENE,67,0.0,1.0,67,0.00,,---,0.00,VWS V14.00,2013-04-22 04:01:00,
2013-04-22 00:06:00,53.3,43.0,30.37,ENE,67,0.0,1.0,68,0.00,,---,0.00,VWS V14.00,2013-04-22 04:06:00,
2013-04-22 00:11:00,53.1,42.5,30.37,NE,51,0.0,0.0,67,0.00,,---,0.00,VWS V14.00,2013-04-22 04:11:00,
2013-04-22 00:16:00,52.9,42.6,30.37,NE,51,0.0,0.0,68,0.00,,---,0.00,VWS V14.00,2013-04-22 04:16:00,
2013-04-22 00:21:00,52.7,42.5,30.37,NE,51,0.0,0.0,68,0.00,,---,0.00,VWS V14.00,2013-04-22 04:21:00,
2013-04-22 00:26:00,52.5,42.6,30.37,NE,51,2.0,3.0,69,0.00,,---,0.00,VWS V14.00,2013-04-22 04:26:00,
2013-04-22 00:31:00,52.3,42.8,30.37,NE,52,0.0,0.0,70,0.00,,---,0.00,VWS V14.00,2013-04-22 04:31:00,
2013-04-22 00:36:00,52.0,42.9,30.37,NE,52,0.0,1.0,71,0.00,,---,0.00,VWS V14.00,2013-04-22 04:36:00,
2013-04-22 00:41:00,51.8,42.7,30.37,NE,52,0.0,0.0,71,0.00,,---,0.00,VWS V14.00,2013-04-22 04:41:00,
2013-04-22 00:46:00,51.5,42.4,30.36,NE,52,0.0,0.0,71,0.00,,---,0.00,VWS V14.00,2013-04-22 04:46:00,
2013-04-22 00:51:00,51.3,42.2,30.37,NE,52,0.0,0.0,71,0.00,,---,0.00,VWS V14.00,2013-04-22 04:51:00,
2013-04-22 00:56:00,51.0,42.3,30.37,NE,52,0.0,1.0,72,0.00,,---,0.00,VWS V14.00,2013-04-22 04:56:00,
2013-04-22 01:01:00,50.8,42.1,30.37,NE,52,3.0,3.0,72,0.00,,---,0.00,VWS V14.00,2013-04-22 05:01:00,
2013-04-22 01:06:00,50.5,42.5,30.36,NE,52,0.0,0.0,74,0.00,,---,0.00,VWS V14.00,2013-04-22 05:06:00,
2013-04-22 01:11:00,50.3,42.3,30.36,NE,52,0.0,0.0,74,0.00,,---,0.00,VWS V14.00,2013-04-22 05:11:00,
2013-04-22 01:16:00,50.1,42.2,30.36,NE,52,0.0,3.0,74,0.00,,---,0.00,VWS V14.00,2013-04-22 05:16:00,
2013-04-22 01:21:00,49.9,42.3,30.37,NE,52,0.0,0.0,75,0.00,,---,0.00,VWS V14.00,2013-04-22 05:21:00,
2013-04-22 01:26:00,49.7,42.1,30.37,NE,52,0.0,0.0,75,0.00,,---,0.00,VWS V14.00,2013-04-22 05:26:00,
2013-04-22 01:31:00,49.6,42.0,30.36,NE,52,0.0,0.0,75,0.00,,---,0.00,VWS V14.00,2013-04-22 05:31:00,
2013-04-22 01:36:00,49.4,41.8,30.36,NE,52,0.0,0.0,75,0.00,,---,0.00,VWS V14.00,2013-04-22 05:36:00,
2013-04-22 01:41:00,49.3,42.1,30.36,East,90,0.0,1.0,76,0.00,,---,0.00,VWS V14.00,2013-04-22 05:41:00,
2013-04-22 01:46:00,49.2,41.6,30.36,East,90,0.0,0.0,75,0.00,,---,0.00,VWS V14.00,2013-04-22 05:46:00,
2013-04-22 01:51:00,49.1,41.2,30.36,ENE,62,0.0,1.0,74,0.00,,---,0.00,VWS V14.00,2013-04-22 05:51:00,
2013-04-22 01:56:00,49.2,41.6,30.36,ENE,62,0.0,3.0,75,0.00,,---,0.00,VWS V14.00,2013-04-22 05:56:00,
2013-04-22 02:01:00,49.2,41.6,30.36,ENE,62,0.0,1.0,75,0.00,,---,0.00,VWS V14.00,2013-04-22 06:01:00,
2013-04-22 02:06:00,49.2,41.6,30.36,ENE,62,0.0,1.0,75,0.00,,---,0.00,VWS V14.00,2013-04-22 06:06:00,
2013-04-22 02:11:00,49.2,41.6,30.36,ENE,62,0.0,0.0,75,0.00,,---,0.00,VWS V14.00,2013-04-22 06:11:00,
2013-04-22 02:16:00,49.2,41.6,30.36,ENE,62,0.0,1.0,75,0.00,,---,0.00,VWS V14.00,2013-04-22 06:16:00,
2013-04-22 02:21:00,49.2,41.6,30.36,ENE,62,0.0,1.0,75,0.00,,---,0.00,VWS V14.00,2013-04-22 06:21:00,
2013-04-22 02:26:00,49.2,41.6,30.36,ENE,62,0.0,0.0,75,0.00,,---,0.00,VWS V14.00,2013-04-22 06:26:00,
2013-04-22 02:31:00,49.0,41.4,30.35,ENE,62,0.0,1.0,75,0.00,,---,0.00,VWS V14.00,2013-04-22 06:31:00,
2013-04-22 02:36:00,48.8,41.2,30.35,SE,124,0.0,1.0,75,0.00,,---,0.00,VWS V14.00,2013-04-22 06:36:00,
2013-04-22 02:41:00,48.8,41.2,30.35,ENE,69,0.0,0.0,75,0.00,,---,0.00,VWS V14.00,2013-04-22 06:41:00,
2013-04-22 02:46:00,48.9,41.3,30.36,ENE,65,3.0,5.0,75,0.00,,---,0.00,VWS V14.00,2013-04-22 06:46:00,
2013-04-22 02:51:00,49.0,41.4,30.35,ENE,65,0.0,1.0,75,0.00,,---,0.00,VWS V14.00,2013-04-22 06:51:00,
2013-04-22 02:56:00,48.9,41.3,30.35,ENE,65,0.0,0.0,75,0.00,,---,0.00,VWS V14.00,2013-04-22 06:56:00,
2013-04-22 03:01:00,48.8,41.2,30.35,ENE,65,0.0,3.0,75,0.00,,---,0.00,VWS V14.00,2013-04-22 07:01:00,
2013-04-22 03:06:00,48.7,41.5,30.35,East,83,0.0,0.0,76,0.00,,---,0.00,VWS V14.00,2013-04-22 07:06:00,
2013-04-22 03:11:00,48.6,41.4,30.35,ESE,115,0.0,1.0,76,0.00,,---,0.00,VWS V14.00,2013-04-22 07:11:00,
2013-04-22 03:16:00,48.5,41.0,30.35,ESE,115,0.0,0.0,75,0.00,,---,0.00,VWS V14.00,2013-04-22 07:16:00,
2013-04-22 03:21:00,48.4,41.2,30.35,ESE,115,0.0,0.0,76,0.00,,---,0.00,VWS V14.00,2013-04-22 07:21:00,
2013-04-22 03:26:00,48.3,41.1,30.35,ESE,115,0.0,0.0,76,0.00,,---,0.00,VWS V14.00,2013-04-22 07:26:00,
2013-04-22 03:31:00,48.1,41.2,30.35,East,89,1.0,5.0,77,0.00,,---,0.00,VWS V14.00,2013-04-22 07:31:00,
2013-04-22 03:36:00,48.0,41.2,30.35,ENE,76,0.0,4.0,77,0.00,,---,0.00,VWS V14.00,2013-04-22 07:36:00,
2013-04-22 03:41:00,48.0,41.2,30.34,ENE,75,0.0,2.0,77,0.00,,---,0.00,VWS V14.00,2013-04-22 07:41:00,
2013-04-22 03:46:00,48.0,41.2,30.34,ENE,75,0.0,0.0,77,0.00,,---,0.00,VWS V14.00,2013-04-22 07:46:00,
2013-04-22 03:51:00,47.8,41.0,30.34,ENE,75,0.0,0.0,77,0.00,,---,0.00,VWS V14.00,2013-04-22 07:51:00,
2013-04-22 03:56:00,47.6,41.1,30.34,ENE,75,0.0,0.0,78,0.00,,---,0.00,VWS V14.00,2013-04-22 07:56:00,
2013-04-22 04:01:00,47.4,41.2,30.34,ENE,63,3.0,3.0,79,0.00,,---,0.00,VWS V14.00,2013-04-22 08:01:00,
2013-04-22 04:06:00,47.2,41.0,30.34,East,81,2.0,6.0,79,0.00,,---,0.00,VWS V14.00,2013-04-22 08:06:00,
2013-04-22 04:11:00,47.2,41.0,30.34,East,79,2.0,4.0,79,0.00,,---,0.00,VWS V14.00,2013-04-22 08:11:00,
2013-04-22 04:16:00,47.2,41.0,30.34,East,79,0.0,1.0,79,0.00,,---,0.00,VWS V14.00,2013-04-22 08:16:00,
2013-04-22 04:21:00,47.1,40.9,30.34,East,95,4.0,4.0,79,0.00,,---,0.00,VWS V14.00,2013-04-22 08:21:00,
2013-04-22 04:26:00,47.0,40.8,30.34,East,96,0.0,1.0,79,0.00,,---,0.00,VWS V14.00,2013-04-22 08:26:00,
2013-04-22 04:31:00,46.9,41.1,30.34,East,96,0.0,0.0,80,0.00,,---,0.00,VWS V14.00,2013-04-22 08:31:00,
2013-04-22 04:36:00,46.8,41.0,30.34,East,80,0.0,2.0,80,0.00,,---,0.00,VWS V14.00,2013-04-22 08:36:00,
2013-04-22 04:41:00,46.7,40.9,30.34,East,80,0.0,0.0,80,0.00,,---,0.00,VWS V14.00,2013-04-22 08:41:00,
2013-04-22 04:46:00,46.5,41.0,30.34,East,79,0.0,1.0,81,0.00,,---,0.00,VWS V14.00,2013-04-22 08:46:00,
2013-04-22 04:51:00,46.5,41.0,30.34,ENE,70,0.0,0.0,81,0.00,,---,0.00,VWS V14.00,2013-04-22 08:51:00,
2013-04-22 04:56:00,46.5,41.0,30.34,ENE,68,0.0,0.0,81,0.00,,---,0.00,VWS V14.00,2013-04-22 08:56:00,
2013-04-22 05:01:00,46.4,40.9,30.34,ENE,63,0.0,8.0,81,0.00,,---,0.00,VWS V14.00,2013-04-22 09:01:00,
2013-04-22 05:06:00,46.3,40.5,30.34,ENE,63,0.0,1.0,80,0.00,,---,0.00,VWS V14.00,2013-04-22 09:06:00,
2013-04-22 05:11:00,46.3,40.5,30.34,ENE,63,1.0,1.0,80,0.00,,---,0.00,VWS V14.00,2013-04-22 09:11:00,
2013-04-22 05:16:00,46.2,40.7,30.34,ENE,61,0.0,0.0,81,0.00,,---,0.00,VWS V14.00,2013-04-22 09:16:00,
2013-04-22 05:21:00,46.1,40.6,30.34,ENE,61,0.0,0.0,81,0.00,,---,0.00,VWS V14.00,2013-04-22 09:21:00,
2013-04-22 05:26:00,46.1,40.6,30.34,NE,37,0.0,2.0,81,0.00,,---,0.00,VWS V14.00,2013-04-22 09:26:00,
2013-04-22 05:31:00,46.1,40.6,30.35,ENE,77,2.0,2.0,81,0.00,,---,0.00,VWS V14.00,2013-04-22 09:31:00,
2013-04-22 05:36:00,46.0,40.5,30.35,NE,55,0.0,0.0,81,0.00,,---,0.00,VWS V14.00,2013-04-22 09:36:00,
2013-04-22 05:41:00,46.0,40.5,30.35,ENE,62,2.0,3.0,81,0.00,,---,0.00,VWS V14.00,2013-04-22 09:41:00,
2013-04-22 05:46:00,45.9,40.4,30.35,ENE,62,0.0,0.0,81,0.00,,---,0.00,VWS V14.00,2013-04-22 09:46:00,
2013-04-22 05:51:00,45.8,40.3,30.35,ENE,62,2.0,2.0,81,0.00,,---,0.00,VWS V14.00,2013-04-22 09:51:00,
2013-04-22 05:56:00,45.7,40.5,30.36,NE,35,5.0,5.0,82,0.00,,---,0.00,VWS V14.00,2013-04-22 09:56:00,
2013-04-22 06:01:00,45.7,40.2,30.36,North,360,0.0,0.0,81,0.00,,---,0.00,VWS V14.00,2013-04-22 10:01:00,
2013-04-22 06:06:00,45.7,40.2,30.36,NE,44,0.0,0.0,81,0.00,,---,0.00,VWS V14.00,2013-04-22 10:06:00,
2013-04-22 06:11:00,45.6,40.1,30.36,NE,37,5.0,5.0,81,0.00,,---,0.00,VWS V14.00,2013-04-22 10:11:00,
2013-04-22 06:16:00,45.6,40.1,30.36,ENE,58,0.0,0.0,81,0.00,,---,0.00,VWS V14.00,2013-04-22 10:16:00,
2013-04-22 06:21:00,45.6,40.1,30.36,ENE,62,0.0,5.0,81,0.00,,---,0.00,VWS V14.00,2013-04-22 10:21:00,
2013-04-22 06:26:00,45.6,40.1,30.36,ENE,57,2.0,3.0,81,0.00,,---,0.00,VWS V14.00,2013-04-22 10:26:00,
2013-04-22 06:31:00,45.6,40.1,30.36,ENE,65,7.0,10.0,81,0.00,,---,0.00,VWS V14.00,2013-04-22 10:31:00,
2013-04-22 06:36:00,45.5,40.0,30.37,NE,49,0.0,3.0,81,0.00,,---,0.00,VWS V14.00,2013-04-22 10:36:00,
2013-04-22 06:41:00,45.6,40.1,30.37,NNE,27,0.0,3.0,81,0.00,,---,0.00,VWS V14.00,2013-04-22 10:41:00,
2013-04-22 06:46:00,45.5,39.7,30.37,NE,51,0.0,2.0,80,0.00,,---,0.00,VWS V14.00,2013-04-22 10:46:00,
2013-04-22 06:51:00,45.5,40.0,30.37,ENE,67,0.0,0.0,81,0.00,,---,0.00,VWS V14.00,2013-04-22 10:51:00,
2013-04-22 06:56:00,45.5,39.7,30.37,North,5,5.0,5.0,80,0.00,,---,0.00,VWS V14.00,2013-04-22 10:56:00,
2013-04-22 07:01:00,45.5,40.0,30.38,ENE,59,1.0,5.0,81,0.00,,---,0.00,VWS V14.00,2013-04-22 11:01:00,
2013-04-22 07:06:00,45.5,39.7,30.38,East,81,4.0,5.0,80,0.00,,---,0.00,VWS V14.00,2013-04-22 11:06:00,
2013-04-22 07:11:00,45.6,39.8,30.38,ENE,63,3.0,7.0,80,0.00,,---,0.00,VWS V14.00,2013-04-22 11:11:00,
2013-04-22 07:16:00,45.6,39.8,30.38,East,88,0.0,6.0,80,0.00,,---,0.00,VWS V14.00,2013-04-22 11:16:00,
2013-04-22 07:21:00,45.8,40.0,30.38,ENE,58,0.0,4.0,80,0.00,,---,0.00,VWS V14.00,2013-04-22 11:21:00,
2013-04-22 07:26:00,45.8,40.0,30.38,ENE,60,0.0,0.0,80,0.00,,---,0.00,VWS V14.00,2013-04-22 11:26:00,
2013-04-22 07:31:00,45.9,40.1,30.39,ENE,73,3.0,6.0,80,0.00,,---,0.00,VWS V14.00,2013-04-22 11:31:00,
2013-04-22 07:35:00,46.0,40.5,30.39,ENE,67,6.0,6.0,81,0.00,,---,0.00,VWS V14.00,2013-04-22 11:35:00,
2013-04-22 07:40:00,46.1,40.3,30.39,NE,52,0.0,0.0,80,0.00,,---,0.00,VWS V14.00,2013-04-22 11:40:00,
2013-04-22 07:45:00,46.3,40.5,30.39,NE,53,0.0,5.0,80,0.00,,---,0.00,VWS V14.00,2013-04-22 11:45:00,
2013-04-22 07:50:00,46.5,40.7,30.39,NE,56,0.0,4.0,80,0.00,,---,0.00,VWS V14.00,2013-04-22 11:50:00,
2013-04-22 07:55:00,46.9,40.7,30.39,ENE,67,3.0,5.0,79,0.00,,---,0.00,VWS V14.00,2013-04-22 11:55:00,
2013-04-22 08:00:00,47.2,40.7,30.39,SSW,202,0.0,1.0,78,0.00,,---,0.00,VWS V14.00,2013-04-22 12:00:00,
2013-04-22 08:05:00,47.5,41.0,30.39,ENE,74,3.0,7.0,78,0.00,,---,0.00,VWS V14.00,2013-04-22 12:05:00,
2013-04-22 08:10:00,47.8,41.0,30.40,ENE,63,4.0,10.0,77,0.00,,---,0.00,VWS V14.00,2013-04-22 12:10:00,
2013-04-22 08:15:00,48.0,41.2,30.39,East,82,3.0,5.0,77,0.00,,---,0.00,VWS V14.00,2013-04-22 12:15:00,
2013-04-22 08:20:00,48.3,41.1,30.39,ENE,58,6.0,8.0,76,0.00,,---,0.00,VWS V14.00,2013-04-22 12:20:00,
2013-04-22 08:25:00,48.5,41.6,30.39,NE,34,9.0,12.0,77,0.00,,---,0.00,VWS V14.00,2013-04-22 12:25:00,
2013-04-22 08:30:00,48.7,41.1,30.39,ENE,59,0.0,4.0,75,0.00,,---,0.00,VWS V14.00,2013-04-22 12:30:00,
2013-04-22 08:35:00,48.8,40.5,30.39,East,83,3.0,7.0,73,0.00,,---,0.00,VWS V14.00,2013-04-22 12:35:00,
2013-04-22 08:40:00,49.0,40.7,30.39,East,96,5.0,5.0,73,0.00,,---,0.00,VWS V14.00,2013-04-22 12:40:00,
2013-04-22 08:45:00,49.2,40.6,30.39,East,96,6.0,7.0,72,0.00,,---,0.00,VWS V14.00,2013-04-22 12:45:00,
2013-04-22 08:50:00,49.4,40.8,30.39,East,84,8.0,12.0,72,0.00,,---,0.00,VWS V14.00,2013-04-22 12:50:00,
2013-04-22 08:55:00,49.6,40.6,30.39,ENE,76,2.0,5.0,71,0.00,,---,0.00,VWS V14.00,2013-04-22 12:55:00,
2013-04-22 09:00:00,49.9,40.9,30.39,ENE,75,8.0,8.0,71,0.00,,---,0.00,VWS V14.00,2013-04-22 13:00:00,
2013-04-22 09:05:00,50.0,39.9,30.39,East,86,1.0,4.0,68,0.00,,---,0.00,VWS V14.00,2013-04-22 13:05:00,
2013-04-22 09:10:00,50.1,39.2,30.39,ESE,103,5.0,12.0,66,0.00,,---,0.00,VWS V14.00,2013-04-22 13:10:00,
2013-04-22 09:15:00,50.0,39.5,30.39,NNW,347,5.0,6.0,67,0.00,,---,0.00,VWS V14.00,2013-04-22 13:15:00,
2013-04-22 09:20:00,50.0,39.5,30.39,ENE,74,1.0,6.0,67,0.00,,---,0.00,VWS V14.00,2013-04-22 13:20:00,
2013-04-22 09:25:00,50.3,40.2,30.39,ESE,122,6.0,7.0,68,0.00,,---,0.00,VWS V14.00,2013-04-22 13:25:00,
2013-04-22 09:30:00,50.4,38.7,30.39,ENE,59,2.0,10.0,64,0.00,,---,0.00,VWS V14.00,2013-04-22 13:30:00,
2013-04-22 09:35:00,50.5,38.8,30.39,East,86,0.0,4.0,64,0.00,,---,0.00,VWS V14.00,2013-04-22 13:35:00,
2013-04-22 09:40:00,50.6,39.7,30.39,NE,42,3.0,6.0,66,0.00,,---,0.00,VWS V14.00,2013-04-22 13:40:00,
2013-04-22 09:45:00,50.9,40.7,30.39,East,88,3.0,7.0,68,0.00,,---,0.00,VWS V14.00,2013-04-22 13:45:00,
2013-04-22 09:50:00,51.2,40.6,30.39,East,80,2.0,4.0,67,0.00,,---,0.00,VWS V14.00,2013-04-22 13:50:00,
2013-04-22 09:55:00,51.7,40.7,30.38,East,88,1.0,5.0,66,0.00,,---,0.00,VWS V14.00,2013-04-22 13:55:00,
2013-04-22 10:00:00,51.9,40.9,30.38,NE,55,2.0,7.0,66,0.00,,---,0.00,VWS V14.00,2013-04-22 14:00:00,
2013-04-22 10:05:00,52.0,40.2,30.38,ENE,70,4.0,11.0,64,0.00,,---,0.00,VWS V14.00,2013-04-22 14:05:00,
2013-04-22 10:10:00,52.3,40.9,30.38,ENE,59,2.0,2.0,65,0.00,,---,0.00,VWS V14.00,2013-04-22 14:10:00,
2013-04-22 10:15:00,52.7,41.3,30.38,ENE,63,7.0,8.0,65,0.00,,---,0.00,VWS V14.00,2013-04-22 14:15:00,
2013-04-22 10:20:00,52.8,41.0,30.38,East,85,4.0,7.0,64,0.00,,---,0.00,VWS V14.00,2013-04-22 14:20:00,
2013-04-22 10:26:00,52.9,40.7,30.38,SE,142,12.0,12.0,63,0.00,,---,0.00,VWS V14.00,2013-04-22 14:26:00,
2013-04-22 10:31:00,52.8,41.0,30.38,East,80,4.0,8.0,64,0.00,,---,0.00,VWS V14.00,2013-04-22 14:31:00,
2013-04-22 10:36:00,52.8,41.0,30.38,NE,39,6.0,6.0,64,0.00,,---,0.00,VWS V14.00,2013-04-22 14:36:00,
2013-04-22 10:41:00,53.0,41.2,30.38,ENE,78,7.0,7.0,64,0.00,,---,0.00,VWS V14.00,2013-04-22 14:41:00,
2013-04-22 10:46:00,53.2,41.8,30.37,NNE,33,6.0,6.0,65,0.00,,---,0.00,VWS V14.00,2013-04-22 14:46:00,
2013-04-22 10:51:00,53.4,40.3,30.37,East,80,4.0,8.0,61,0.00,,---,0.00,VWS V14.00,2013-04-22 14:51:00,
2013-04-22 10:56:00,53.7,40.2,30.37,East,87,3.0,6.0,60,0.00,,---,0.00,VWS V14.00,2013-04-22 14:56:00,
2013-04-22 11:01:00,53.9,39.9,30.37,East,84,5.0,10.0,59,0.00,,---,0.00,VWS V14.00,2013-04-22 15:01:00,
2013-04-22 11:06:00,54.0,40.4,30.37,East,95,4.0,6.0,60,0.00,,---,0.00,VWS V14.00,2013-04-22 15:06:00,
2013-04-22 11:11:00,54.3,40.3,30.37,East,87,3.0,7.0,59,0.00,,---,0.00,VWS V14.00,2013-04-22 15:11:00,
2013-04-22 11:16:00,54.4,41.2,30.36,East,101,4.0,5.0,61,0.00,,---,0.00,VWS V14.00,2013-04-22 15:16:00,
2013-04-22 11:21:00,54.6,40.1,30.36,NW,320,3.0,6.0,58,0.00,,---,0.00,VWS V14.00,2013-04-22 15:21:00,
2013-04-22 11:26:00,55.0,40.5,30.36,SE,131,5.0,7.0,58,0.00,,---,0.00,VWS V14.00,2013-04-22 15:26:00,
2013-04-22 11:31:00,55.4,41.3,30.36,ENE,74,7.0,7.0,59,0.00,,---,0.00,VWS V14.00,2013-04-22 15:31:00,
2013-04-22 11:36:00,55.6,40.2,30.36,ENE,77,2.0,7.0,56,0.00,,---,0.00,VWS V14.00,2013-04-22 15:36:00,
2013-04-22 11:41:00,56.0,40.1,30.36,ESE,122,0.0,3.0,55,0.00,,---,0.00,VWS V14.00,2013-04-22 15:41:00,
2013-04-22 11:46:00,56.3,40.8,30.36,ESE,109,1.0,6.0,56,0.00,,---,0.00,VWS V14.00,2013-04-22 15:46:00,
2013-04-22 11:51:00,56.3,39.4,30.36,ENE,65,5.0,12.0,53,0.00,,---,0.00,VWS V14.00,2013-04-22 15:51:00,
2013-04-22 11:56:00,56.4,40.5,30.36,NE,39,6.0,6.0,55,0.00,,---,0.00,VWS V14.00,2013-04-22 15:56:00,
2013-04-22 12:01:00,56.6,40.2,30.35,ESE,109,2.0,4.0,54,0.00,,---,0.00,VWS V14.00,2013-04-22 16:01:00,
2013-04-22 12:06:00,56.5,39.1,30.35,East,101,4.0,8.0,52,0.00,,---,0.00,VWS V14.00,2013-04-22 16:06:00,
2013-04-22 12:11:00,56.6,41.1,30.35,ESE,105,5.0,10.0,56,0.00,,---,0.00,VWS V14.00,2013-04-22 16:11:00,
2013-04-22 12:16:00,56.8,38.9,30.34,ENE,61,6.0,7.0,51,0.00,,---,0.00,VWS V14.00,2013-04-22 16:16:00,
2013-04-22 12:21:00,56.8,38.4,30.34,ENE,69,1.0,4.0,50,0.00,,---,0.00,VWS V14.00,2013-04-22 16:21:00,
2013-04-22 12:26:00,57.0,41.0,30.34,NNE,33,4.0,6.0,55,0.00,,---,0.00,VWS V14.00,2013-04-22 16:26:00,
2013-04-22 12:31:00,57.3,42.2,30.34,NE,35,3.0,3.0,57,0.00,,---,0.00,VWS V14.00,2013-04-22 16:31:00,
2013-04-22 12:36:00,57.6,39.1,30.33,ENE,72,0.0,7.0,50,0.00,,---,0.00,VWS V14.00,2013-04-22 16:36:00,
2013-04-22 12:41:00,58.0,41.5,30.33,East,93,5.0,6.0,54,0.00,,---,0.00,VWS V14.00,2013-04-22 16:41:00,
2013-04-22 12:46:00,58.4,43.2,30.33,NNE,22,7.0,9.0,57,0.00,,---,0.00,VWS V14.00,2013-04-22 16:46:00,
2013-04-22 12:51:00,58.6,39.0,30.32,NNW,345,10.0,10.0,48,0.00,,---,0.00,VWS V14.00,2013-04-22 16:51:00,
2013-04-22 12:56:00,58.7,41.1,30.32,SE,132,0.0,4.0,52,0.00,,---,0.00,VWS V14.00,2013-04-22 16:56:00,
2013-04-22 13:01:00,59.1,41.0,30.32,North,355,3.0,8.0,51,0.00,,---,0.00,VWS V14.00,2013-04-22 17:01:00,
2013-04-22 13:06:00,59.4,41.3,30.32,NNE,21,8.0,13.0,51,0.00,,---,0.00,VWS V14.00,2013-04-22 17:06:00,
2013-04-22 13:11:00,59.3,40.2,30.31,SE,142,5.0,10.0,49,0.00,,---,0.00,VWS V14.00,2013-04-22 17:11:00,
2013-04-22 13:16:00,59.1,41.5,30.31,East,84,3.0,11.0,52,0.00,,---,0.00,VWS V14.00,2013-04-22 17:16:00,
2013-04-22 13:21:00,59.3,40.2,30.31,East,88,2.0,4.0,49,0.00,,---,0.00,VWS V14.00,2013-04-22 17:21:00,
2013-04-22 13:26:00,59.3,40.7,30.31,ENE,61,4.0,7.0,50,0.00,,---,0.00,VWS V14.00,2013-04-22 17:26:00,
2013-04-22 13:31:00,59.1,39.5,30.30,SSE,159,4.0,6.0,48,0.00,,---,0.00,VWS V14.00,2013-04-22 17:31:00,
2013-04-22 13:36:00,59.2,40.6,30.30,NNE,18,2.0,7.0,50,0.00,,---,0.00,VWS V14.00,2013-04-22 17:36:00,
2013-04-22 13:41:00,59.4,40.2,30.30,NE,54,4.0,4.0,49,0.00,,---,0.00,VWS V14.00,2013-04-22 17:41:00,
2013-04-22 13:46:00,59.5,40.3,30.30,ENE,59,5.0,5.0,49,0.00,,---,0.00,VWS V14.00,2013-04-22 17:46:00,
2013-04-22 13:51:00,59.8,40.6,30.30,ENE,59,0.0,3.0,49,0.00,,---,0.00,VWS V14.00,2013-04-22 17:51:00,
2013-04-22 13:56:00,60.0,40.8,30.29,ENE,78,7.0,8.0,49,0.00,,---,0.00,VWS V14.00,2013-04-22 17:56:00,
2013-04-22 14:01:00,60.2,42.0,30.29,NNE,15,0.0,4.0,51,0.00,,---,0.00,VWS V14.00,2013-04-22 18:01:00,
2013-04-22 14:06:00,60.8,42.1,30.29,NNE,26,6.0,8.0,50,0.00,,---,0.00,VWS V14.00,2013-04-22 18:06:00,
2013-04-22 14:11:00,61.2,44.0,30.28,NE,41,3.0,8.0,53,0.00,,---,0.00,VWS V14.00,2013-04-22 18:11:00,
2013-04-22 14:16:00,61.4,42.1,30.28,ESE,103,8.0,11.0,49,0.00,,---,0.00,VWS V14.00,2013-04-22 18:16:00,
2013-04-22 14:21:00,61.6,42.3,30.28,NNE,32,5.0,5.0,49,0.00,,---,0.00,VWS V14.00,2013-04-22 18:21:00,
2013-04-22 14:26:00,61.7,41.8,30.28,ENE,74,1.0,1.0,48,0.00,,---,0.00,VWS V14.00,2013-04-22 18:26:00,
2013-04-22 14:31:00,61.9,43.1,30.28,ENE,70,4.0,6.0,50,0.00,,---,0.00,VWS V14.00,2013-04-22 18:31:00,
2013-04-22 14:36:00,62.3,41.8,30.28,ENE,63,1.0,6.0,47,0.00,,---,0.00,VWS V14.00,2013-04-22 18:36:00,
2013-04-22 14:41:00,62.4,42.5,30.28,ESE,118,14.0,14.0,48,0.00,,---,0.00,VWS V14.00,2013-04-22 18:41:00,
2013-04-22 14:46:00,62.6,42.1,30.28,ESE,103,0.0,5.0,47,0.00,,---,0.00,VWS V14.00,2013-04-22 18:46:00,
2013-04-22 14:51:00,62.7,42.8,30.28,East,101,4.0,9.0,48,0.00,,---,0.00,VWS V14.00,2013-04-22 18:51:00,
2013-04-22 14:56:00,62.7,41.1,30.27,SE,146,9.0,9.0,45,0.00,,---,0.00,VWS V14.00,2013-04-22 18:56:00,
2013-04-22 15:01:00,62.6,41.0,30.27,NNE,17,0.0,1.0,45,0.00,,---,0.00,VWS V14.00,2013-04-22 19:01:00,
2013-04-22 15:06:00,62.6,41.5,30.27,ENE,73,5.0,8.0,46,0.00,,---,0.00,VWS V14.00,2013-04-22 19:06:00,
2013-04-22 15:11:00,62.2,40.6,30.27,ESE,120,4.0,6.0,45,0.00,,---,0.00,VWS V14.00,2013-04-22 19:11:00,
2013-04-22 15:16:00,62.3,40.7,30.27,ESE,111,4.0,7.0,45,0.00,,---,0.00,VWS V14.00,2013-04-22 19:16:00,
2013-04-22 15:21:00,62.4,40.2,30.27,ENE,66,1.0,1.0,44,0.00,,---,0.00,VWS V14.00,2013-04-22 19:21:00,
2013-04-22 15:26:00,62.5,40.9,30.26,SSE,152,5.0,6.0,45,0.00,,---,0.00,VWS V14.00,2013-04-22 19:26:00,
2013-04-22 15:31:00,62.6,43.2,30.26,ENE,78,4.0,4.0,49,0.00,,---,0.00,VWS V14.00,2013-04-22 19:31:00,
2013-04-22 15:36:00,62.7,41.6,30.26,ESE,112,1.0,2.0,46,0.00,,---,0.00,VWS V14.00,2013-04-22 19:36:00,
2013-04-22 15:41:00,62.9,40.1,30.25,ESE,116,4.0,15.0,43,0.00,,---,0.00,VWS V14.00,2013-04-22 19:41:00,
2013-04-22 15:46:00,63.1,41.4,30.25,ESE,119,5.0,6.0,45,0.00,,---,0.00,VWS V14.00,2013-04-22 19:46:00,
2013-04-22 15:51:00,63.1,40.3,30.25,SE,140,5.0,5.0,43,0.00,,---,0.00,VWS V14.00,2013-04-22 19:51:00,
2013-04-22 15:56:00,63.5,41.8,30.25,ENE,76,4.0,5.0,45,0.00,,---,0.00,VWS V14.00,2013-04-22 19:56:00,
2013-04-22 16:01:00,63.8,40.9,30.25,ENE,71,2.0,5.0,43,0.00,,---,0.00,VWS V14.00,2013-04-22 20:01:00,
2013-04-22 16:06:00,63.9,41.0,30.24,ENE,61,0.0,2.0,43,0.00,,---,0.00,VWS V14.00,2013-04-22 20:06:00,
2013-04-22 16:11:00,63.6,40.1,30.24,ENE,78,3.0,3.0,42,0.00,,---,0.00,VWS V14.00,2013-04-22 20:11:00,
2013-04-22 16:16:00,63.4,41.7,30.24,ESE,111,4.0,9.0,45,0.00,,---,0.00,VWS V14.00,2013-04-22 20:16:00,
2013-04-22 16:21:00,63.4,41.1,30.24,ENE,75,0.0,7.0,44,0.00,,---,0.00,VWS V14.00,2013-04-22 20:21:00,
2013-04-22 16:26:00,63.4,41.7,30.24,ENE,67,1.0,6.0,45,0.00,,---,0.00,VWS V14.00,2013-04-22 20:26:00,
2013-04-22 16:31:00,63.4,40.5,30.24,NE,49,2.0,4.0,43,0.00,,---,0.00,VWS V14.00,2013-04-22 20:31:00,
2013-04-22 16:36:00,63.5,39.4,30.23,ENE,63,0.0,3.0,41,0.00,,---,0.00,VWS V14.00,2013-04-22 20:36:00,
2013-04-22 16:41:00,63.4,40.5,30.23,WSW,250,0.0,4.0,43,0.00,,---,0.00,VWS V14.00,2013-04-22 20:41:00,
2013-04-22 16:46:00,63.4,41.1,30.23,ESE,102,2.0,4.0,44,0.00,,---,0.00,VWS V14.00,2013-04-22 20:46:00,
2013-04-22 16:51:00,63.6,40.7,30.22,East,96,8.0,12.0,43,0.00,,---,0.00,VWS V14.00,2013-04-22 20:51:00,
2013-04-22 16:56:00,63.5,42.4,30.22,NE,34,5.0,5.0,46,0.00,,---,0.00,VWS V14.00,2013-04-22 20:56:00,
2013-04-22 17:01:00,63.4,39.9,30.22,ENE,63,0.0,1.0,42,0.00,,---,0.00,VWS V14.00,2013-04-22 21:01:00,
2013-04-22 17:06:00,63.2,40.3,30.22,East,88,0.0,1.0,43,0.00,,---,0.00,VWS V14.00,2013-04-22 21:06:00,
2013-04-22 17:11:00,63.2,39.8,30.22,East,96,5.0,7.0,42,0.00,,---,0.00,VWS V14.00,2013-04-22 21:11:00,
2013-04-22 17:16:00,63.0,40.8,30.22,ENE,77,5.0,5.0,44,0.00,,---,0.00,VWS V14.00,2013-04-22 21:16:00,
2013-04-22 17:21:00,62.9,41.3,30.22,ENE,64,0.0,1.0,45,0.00,,---,0.00,VWS V14.00,2013-04-22 21:21:00,
2013-04-22 17:26:00,62.9,42.4,30.22,NE,40,0.0,7.0,47,0.00,,---,0.00,VWS V14.00,2013-04-22 21:26:00,
2013-04-22 17:31:00,62.9,40.7,30.22,ENE,64,3.0,10.0,44,0.00,,---,0.00,VWS V14.00,2013-04-22 21:31:00,
2013-04-22 17:36:00,62.7,40.5,30.21,East,88,3.0,4.0,44,0.00,,---,0.00,VWS V14.00,2013-04-22 21:36:00,
2013-04-22 17:41:00,62.4,40.8,30.21,ENE,71,3.0,8.0,45,0.00,,---,0.00,VWS V14.00,2013-04-22 21:41:00,
2013-04-22 17:46:00,62.2,38.2,30.21,SSE,148,5.0,7.0,41,0.00,,---,0.00,VWS V14.00,2013-04-22 21:46:00,
2013-04-22 17:51:00,62.1,39.4,30.21,ENE,61,1.0,4.0,43,0.00,,---,0.00,VWS V14.00,2013-04-22 21:51:00,
2013-04-22 17:56:00,61.9,38.6,30.21,ESE,109,5.0,7.0,42,0.00,,---,0.00,VWS V14.00,2013-04-22 21:56:00,
2013-04-22 18:01:00,61.8,38.5,30.21,East,88,2.0,4.0,42,0.00,,---,0.00,VWS V14.00,2013-04-22 22:01:00,
2013-04-22 18:06:00,61.7,37.8,30.21,ENE,74,0.0,3.0,41,0.00,,---,0.00,VWS V14.00,2013-04-22 22:06:00,
2013-04-22 18:11:00,61.6,37.7,30.20,ENE,60,6.0,6.0,41,0.00,,---,0.00,VWS V14.00,2013-04-22 22:11:00,
2013-04-22 18:16:00,61.5,38.8,30.21,NE,48,11.0,11.0,43,0.00,,---,0.00,VWS V14.00,2013-04-22 22:16:00,
2013-04-22 18:21:00,61.4,37.5,30.21,ENE,77,5.0,10.0,41,0.00,,---,0.00,VWS V14.00,2013-04-22 22:21:00,
2013-04-22 18:26:00,61.2,38.0,30.21,ENE,65,0.0,0.0,42,0.00,,---,0.00,VWS V14.00,2013-04-22 22:26:00,
2013-04-22 18:31:00,61.1,39.0,30.20,ENE,78,2.0,3.0,44,0.00,,---,0.00,VWS V14.00,2013-04-22 22:31:00,
2013-04-22 18:36:00,61.0,37.2,30.20,ENE,64,0.0,1.0,41,0.00,,---,0.00,VWS V14.00,2013-04-22 22:36:00,
2013-04-22 18:41:00,60.9,38.3,30.20,North,5,0.0,5.0,43,0.00,,---,0.00,VWS V14.00,2013-04-22 22:41:00,
2013-04-22 18:46:00,60.8,37.6,30.20,ENE,71,2.0,6.0,42,0.00,,---,0.00,VWS V14.00,2013-04-22 22:46:00,
2013-04-22 18:51:00,60.7,38.1,30.20,SE,139,7.0,9.0,43,0.00,,---,0.00,VWS V14.00,2013-04-22 22:51:00,
2013-04-22 18:56:00,60.6,36.8,30.20,ENE,76,0.0,0.0,41,0.00,,---,0.00,VWS V14.00,2013-04-22 22:56:00,
2013-04-22 19:01:00,60.5,37.3,30.20,ENE,57,0.0,8.0,42,0.00,,---,0.00,VWS V14.00,2013-04-22 23:01:00,
2013-04-22 19:06:00,60.3,36.5,30.21,ENE,59,3.0,6.0,41,0.00,,---,0.00,VWS V14.00,2013-04-22 23:06:00,
2013-04-22 19:11:00,60.2,37.0,30.21,ESE,123,0.0,1.0,42,0.00,,---,0.00,VWS V14.00,2013-04-22 23:11:00,
2013-04-22 19:16:00,60.0,36.9,30.21,ENE,63,0.0,0.0,42,0.00,,---,0.00,VWS V14.00,2013-04-22 23:16:00,
2013-04-22 19:21:00,59.8,37.3,30.21,East,85,1.0,3.0,43,0.00,,---,0.00,VWS V14.00,2013-04-22 23:21:00,
2013-04-22 19:26:00,59.6,37.1,30.21,East,93,0.0,0.0,43,0.00,,---,0.00,VWS V14.00,2013-04-22 23:26:00,
2013-04-22 19:31:00,59.4,36.3,30.21,East,93,0.0,1.0,42,0.00,,---,0.00,VWS V14.00,2013-04-22 23:31:00,
2013-04-22 19:36:00,59.2,37.3,30.21,ENE,57,0.0,0.0,44,0.00,,---,0.00,VWS V14.00,2013-04-22 23:36:00,
2013-04-22 19:41:00,59.0,38.3,30.21,ENE,62,0.0,1.0,46,0.00,,---,0.00,VWS V14.00,2013-04-22 23:41:00,
2013-04-22 19:46:00,58.7,38.5,30.21,ENE,62,0.0,0.0,47,0.00,,---,0.00,VWS V14.00,2013-04-22 23:46:00,
2013-04-22 19:50:00,58.4,37.2,30.21,ENE,62,0.0,0.0,45,0.00,,---,0.00,VWS V14.00,2013-04-22 23:50:00,
2013-04-22 19:55:00,58.1,37.5,30.21,ENE,62,0.0,0.0,46,0.00,,---,0.00,VWS V14.00,2013-04-22 23:55:00,
2013-04-22 20:00:00,57.8,38.3,30.21,ENE,62,0.0,0.0,48,0.00,,---,0.00,VWS V14.00,2013-04-23 00:00:00,
2013-04-22 20:05:00,57.5,38.0,30.21,ENE,62,0.0,0.0,48,0.00,,---,0.00,VWS V14.00,2013-04-23 00:05:00,
2013-04-22 20:10:00,57.1,38.1,30.21,ENE,62,0.0,0.0,49,0.00,,---,0.00,VWS V14.00,2013-04-23 00:10:00,
2013-04-22 20:15:00,56.7,38.3,30.21,ENE,62,0.0,0.0,50,0.00,,---,0.00,VWS V14.00,2013-04-23 00:15:00,
2013-04-22 20:20:00,56.3,38.4,30.22,ENE,62,0.0,0.0,51,0.00,,---,0.00,VWS V14.00,2013-04-23 00:20:00,
2013-04-22 20:25:00,55.9,38.5,30.22,ENE,62,0.0,0.0,52,0.00,,---,0.00,VWS V14.00,2013-04-23 00:25:00,
2013-04-22 20:30:00,55.5,38.7,30.22,ENE,62,0.0,0.0,53,0.00,,---,0.00,VWS V14.00,2013-04-23 00:30:00,
2013-04-22 20:35:00,55.0,38.2,30.22,ENE,62,0.0,0.0,53,0.00,,---,0.00,VWS V14.00,2013-04-23 00:35:00,
2013-04-22 20:40:00,54.5,38.2,30.22,ENE,62,0.0,0.0,54,0.00,,---,0.00,VWS V14.00,2013-04-23 00:40:00,
2013-04-22 20:45:00,54.1,38.3,30.22,ENE,62,0.0,0.0,55,0.00,,---,0.00,VWS V14.00,2013-04-23 00:45:00,
2013-04-22 20:50:00,53.7,38.8,30.22,ENE,62,0.0,0.0,57,0.00,,---,0.00,VWS V14.00,2013-04-23 00:50:00,
2013-04-22 20:55:00,53.3,38.5,30.23,ENE,62,0.0,0.0,57,0.00,,---,0.00,VWS V14.00,2013-04-23 00:55:00,
2013-04-22 21:00:00,52.9,38.5,30.23,ENE,62,0.0,0.0,58,0.00,,---,0.00,VWS V14.00,2013-04-23 01:00:00,
2013-04-22 21:05:00,52.5,38.6,30.23,ENE,62,0.0,0.0,59,0.00,,---,0.00,VWS V14.00,2013-04-23 01:05:00,
2013-04-22 21:10:00,52.2,38.8,30.23,ENE,62,0.0,0.0,60,0.00,,---,0.00,VWS V14.00,2013-04-23 01:10:00,
2013-04-22 21:15:00,51.9,38.5,30.23,ENE,62,0.0,0.0,60,0.00,,---,0.00,VWS V14.00,2013-04-23 01:15:00,
2013-04-22 21:20:00,51.5,38.5,30.23,ENE,62,0.0,0.0,61,0.00,,---,0.00,VWS V14.00,2013-04-23 01:20:00,
2013-04-22 21:25:00,51.2,38.6,30.23,ENE,62,0.0,0.0,62,0.00,,---,0.00,VWS V14.00,2013-04-23 01:25:00,
2013-04-22 21:30:00,50.9,38.4,30.24,ENE,62,0.0,0.0,62,0.00,,---,0.00,VWS V14.00,2013-04-23 01:30:00,
2013-04-22 21:35:00,50.7,39.0,30.24,ENE,62,0.0,0.0,64,0.00,,---,0.00,VWS V14.00,2013-04-23 01:35:00,
2013-04-22 21:40:00,50.5,38.4,30.25,ENE,62,0.0,0.0,63,0.00,,---,0.00,VWS V14.00,2013-04-23 01:40:00,
2013-04-22 21:45:00,50.4,38.7,30.25,ENE,62,0.0,0.0,64,0.00,,---,0.00,VWS V14.00,2013-04-23 01:45:00,
2013-04-22 21:51:00,50.2,38.9,30.25,ENE,62,0.0,0.0,65,0.00,,---,0.00,VWS V14.00,2013-04-23 01:51:00,
2013-04-22 21:56:00,50.1,39.6,30.25,ENE,62,0.0,0.0,67,0.00,,---,0.00,VWS V14.00,2013-04-23 01:56:00,
2013-04-22 22:01:00,50.0,39.5,30.25,ENE,62,0.0,0.0,67,0.00,,---,0.00,VWS V14.00,2013-04-23 02:01:00,
2013-04-22 22:06:00,49.8,39.7,30.25,ENE,62,0.0,0.0,68,0.00,,---,0.00,VWS V14.00,2013-04-23 02:06:00,
2013-04-22 22:11:00,49.6,39.9,30.25,ENE,62,0.0,0.0,69,0.00,,---,0.00,VWS V14.00,2013-04-23 02:11:00,
2013-04-22 22:16:00,49.4,39.3,30.25,ENE,62,0.0,0.0,68,0.00,,---,0.00,VWS V14.00,2013-04-23 02:16:00,
2013-04-22 22:21:00,49.2,39.5,30.25,ENE,62,0.0,0.0,69,0.00,,---,0.00,VWS V14.00,2013-04-23 02:21:00,
2013-04-22 22:26:00,49.0,39.3,30.25,ENE,62,0.0,0.0,69,0.00,,---,0.00,VWS V14.00,2013-04-23 02:26:00,
2013-04-22 22:31:00,48.8,39.5,30.25,ENE,62,0.0,0.0,70,0.00,,---,0.00,VWS V14.00,2013-04-23 02:31:00,
2013-04-22 22:36:00,48.6,39.6,30.25,ENE,62,0.0,0.0,71,0.00,,---,0.00,VWS V14.00,2013-04-23 02:36:00,
2013-04-22 22:41:00,48.4,40.2,30.25,ENE,62,0.0,0.0,73,0.00,,---,0.00,VWS V14.00,2013-04-23 02:41:00,
2013-04-22 22:46:00,48.3,39.7,30.25,ENE,62,0.0,0.0,72,0.00,,---,0.00,VWS V14.00,2013-04-23 02:46:00,
2013-04-22 22:51:00,48.2,40.0,30.26,ENE,62,0.0,0.0,73,0.00,,---,0.00,VWS V14.00,2013-04-23 02:51:00,
2013-04-22 22:56:00,48.1,40.2,30.26,ENE,62,0.0,0.0,74,0.00,,---,0.00,VWS V14.00,2013-04-23 02:56:00,
2013-04-22 23:01:00,47.9,40.0,30.26,ENE,62,0.0,0.0,74,0.00,,---,0.00,VWS V14.00,2013-04-23 03:01:00,
2013-04-22 23:06:00,47.8,39.9,30.26,ENE,62,0.0,0.0,74,0.00,,---,0.00,VWS V14.00,2013-04-23 03:06:00,
2013-04-22 23:11:00,47.6,40.1,30.25,ENE,62,0.0,0.0,75,0.00,,---,0.00,VWS V14.00,2013-04-23 03:11:00,
2013-04-22 23:16:00,47.4,39.9,30.25,ENE,62,0.0,0.0,75,0.00,,---,0.00,VWS V14.00,2013-04-23 03:16:00,
2013-04-22 23:21:00,47.2,40.0,30.25,ENE,62,0.0,0.0,76,0.00,,---,0.00,VWS V14.00,2013-04-23 03:21:00,
2013-04-22 23:26:00,47.0,39.8,30.25,ENE,62,0.0,0.0,76,0.00,,---,0.00,VWS V14.00,2013-04-23 03:26:00,
2013-04-22 23:31:00,46.9,40.1,30.25,ENE,62,0.0,0.0,77,0.00,,---,0.00,VWS V14.00,2013-04-23 03:31:00,
2013-04-22 23:36:00,46.8,40.0,30.25,ENE,62,0.0,0.0,77,0.00,,---,0.00,VWS V14.00,2013-04-23 03:36:00,
2013-04-22 23:41:00,46.7,39.9,30.25,ENE,62,0.0,0.0,77,0.00,,---,0.00,VWS V14.00,2013-04-23 03:41:00,
2013-04-22 23:46:00,46.7,39.9,30.25,ENE,62,0.0,0.0,77,0.00,,---,0.00,VWS V14.00,2013-04-23 03:46:00,
2013-04-22 23:51:00,46.6,40.1,30.25,ENE,62,0.0,0.0,78,0.00,,---,0.00,VWS V14.00,2013-04-23 03:51:00,
2013-04-22 23:56:00,46.4,39.6,30.26,ENE,62,0.0,0.0,77,0.00,,---,0.00,VWS V14.00,2013-04-23 03:56:00,